Location: Namasale
(1.5000°N, 32.6167°E)
Time: 17:27:51
(UTC+00:00)

Courier 1B - Pass Details

Date: 26 April 2021
Orbit: 962 x 1209 km, 28.3° (Epoch: 18 May)

Event Time Altitude Azimuth Distance (km) Brightness Sun altitude
Rises 06:19:16 0° 270° (W) 4,042 10.3 37.2°
Reaches altitude 10° 06:22:48 10° 283° (WNW) 3,044 9.8 38.0°
Maximum altitude 06:28:34 24° 334° (NNW) 2,131 9.4 39.4°
Drops below altitude 10° 06:34:06 10° 25° (NNE) 2,898 10.6 40.7°
Sets 06:37:23 0° 39° (NE) 3,808 11.2 41.5°
